Location: Allie Creek
(37.5926°N, 89.8526°W)
Time: 19:10:32
(UTC+00:00)

NOSS 2-3 (E) - Pass Details

Date: 26 September 2023
Orbit: 505 x 1696 km, 63.3° (Epoch: 05 December)

Event Time Altitude Azimuth Distance (km) Brightness Sun altitude
Rises 00:44:29 0° 213° (SSW) 2,636 7.2 -11.2°
Reaches altitude 10° 00:46:38 10° 215° (SW) 1,717 6.2 -11.6°
Maximum altitude 00:50:20 81° 301° (WNW) 520 3.2 -12.4°
Drops below altitude 10° 00:54:16 10° 31° (NNE) 1,820 5.8 -13.1°
Sets 00:56:36 0° 32° (NNE) 2,813 6.7 -13.6°
